"startDT [UTC]","vpos","CH4 [ppm]","stdev(CH4) [ppm]","CO2 [ppm]","stdev(CO2) [ppm]","H2O_reported [%]","stdev(H2O_reported)","CavityPressure [torr]","CavityTemp [C]","OutletValve","CH4_dry [ppm]","CO2_dry [ppm]","DasTemp [C]","EtalonTemp [C]","WarmBoxTemp [C]","MPVPosition","T_ECpre [C]","T_EC1 [C]","T_EC2 [C]","p_inlet [hPa]","p_in [hPa]","p_out [hPa]","T_inlet [C]","RH_inlet [%]","dwpt_inlet [C]","T_vent [C]","RH_vent [%]","dwpt_vent [C]","flow_vent [l min-1]","flow_inlet [l min-1]","dwpt_sample [C]","T_room [C]"
2015-11-18 00:00:00,0.0,1.92974,0.00041,400.000,0.034,0.2996,0.0017,140.000,45.000,31836.03361,1.93550,401.454,35.337,45.069,45.000,0.00,0.09,-272.74,-272.81,-7,525,-962,20.2,9.6,-12.8,20.3,9.8,-12.6,5.73,1.99,-9.2,26.7
2015-11-18 00:01:00,0.0,1.92999,0.00031,400.008,0.035,0.2988,0.0016,140.002,45.000,31836.82993,1.93569,401.456,35.320,45.069,45.000,0.00,0.09,-272.75,-272.81,-6,525,-962,20.2,9.6,-12.9,20.3,9.7,-12.6,5.73,1.98,-9.2,26.7
2015-11-18 00:02:00,0.0,1.93017,0.00032,400.022,0.037,0.2990,0.0019,139.996,45.000,31836.22106,1.93589,401.473,35.330,45.069,45.000,0.00,0.09,-272.75,-272.81,-7,525,-962,20.2,9.6,-12.8,20.3,9.7,-12.6,5.73,1.99,-9.2,26.7
2015-11-18 00:03:00,0.0,1.93007,0.00036,399.998,0.037,0.2991,0.0016,139.998,45.000,31836.16358,1.93582,401.448,35.344,45.069,45.000,0.00,0.09,-272.75,-272.81,-7,525,-962,20.2,9.7,-12.8,20.3,9.8,-12.6,5.73,1.99,-9.2,26.7
2015-11-18 00:04:00,0.0,1.92978,0.00041,400.009,0.032,0.2990,0.0016,139.998,45.000,31836.23816,1.93548,401.457,35.324,45.069,45.000,0.00,0.09,-272.74,-272.80,-7,525,-962,20.2,9.6,-12.8,20.3,9.8,-12.6,5.73,1.99,-9.2,26.7
2015-11-18 00:05:00,0.0,1.93001,0.00035,400.022,0.043,0.2988,0.0015,139.999,45.000,31834.08235,1.93575,401.471,35.326,45.069,45.000,0.00,0.09,-272.74,-272.80,-7,525,-962,20.2,9.7,-12.8,20.3,9.8,-12.6,5.73,2.00,-9.2,26.7
2015-11-18 00:06:00,0.0,1.93010,0.00026,400.008,0.032,0.2986,0.0013,140.000,45.000,31835.31012,1.93580,401.458,35.349,45.069,45.000,0.00,0.09,-272.75,-272.81,-7,525,-962,20.2,9.6,-12.8,20.3,9.8,-12.6,5.73,2.00,-9.2,26.7
2015-11-18 00:07:00,0.0,1.93015,0.00034,400.014,0.030,0.2987,0.0017,139.997,45.000,31834.19528,1.93588,401.461,35.363,45.068,45.000,0.00,0.09,-272.75,-272.81,-7,525,-962,20.2,9.7,-12.8,20.3,9.8,-12.6,5.73,2.01,-9.2,26.7
2015-11-18 00:08:00,0.0,1.93027,0.00029,400.026,0.031,0.3003,0.0023,140.002,45.000,31835.52074,1.93600,401.482,35.373,45.068,45.000,0.00,0.09,-272.74,-272.80,-7,525,-962,20.2,9.7,-12.8,20.3,9.8,-12.6,5.73,2.01,-9.2,26.7
2015-11-18 00:09:00,0.0,1.92995,0.00044,400.014,0.030,0.3010,0.0021,139.999,45.000,31835.57828,1.93571,401.475,35.375,45.068,45.000,0.00,0.09,-272.75,-272.80,-7,525,-962,20.2,9.7,-12.8,20.3,9.8,-12.5,5.73,2.02,-9.2,26.7
2015-11-18 00:10:00,0.0,1.93079,0.00032,400.055,0.036,0.3007,0.0013,140.000,45.000,31831.62889,1.93655,401.512,35.371,45.068,45.000,0.00,0.09,-272.75,-272.81,-7,525,-962,20.2,9.7,-12.8,20.4,9.8,-12.5,5.73,2.03,-9.2,26.7
2015-11-18 00:11:00,0.0,1.93031,0.00041,400.022,0.026,0.3000,0.0016,139.997,45.000,31828.65336,1.93607,401.477,35.372,45.069,45.000,0.00,0.09,-272.74,-272.81,-7,525,-962,20.2,9.7,-12.8,20.4,9.8,-12.5,5.73,2.03,-9.2,26.7
2015-11-18 00:12:00,0.0,1.93009,0.00030,400.039,0.033,0.2996,0.0017,139.999,45.000,31829.15952,1.93581,401.492,35.354,45.069,45.000,0.00,0.09,-272.74,-272.80,-7,525,-962,20.2,9.7,-12.8,20.3,9.8,-12.6,5.73,2.03,-9.2,26.7
2015-11-18 00:13:00,0.0,1.93026,0.00047,400.031,0.028,0.2994,0.0013,139.999,44.999,31828.58048,1.93603,401.484,35.348,45.069,45.000,0.00,0.09,-272.74,-272.81,-7,525,-962,20.2,9.7,-12.8,20.3,9.8,-12.6,5.73,2.03,-9.2,26.7
2015-11-18 00:14:00,0.0,1.93033,0.00045,400.031,0.049,0.3011,0.0022,140.000,44.999,31829.39926,1.93608,401.493,35.349,45.069,45.000,0.00,0.09,-272.75,-272.81,-7,525,-962,20.2,9.7,-12.7,20.4,9.8,-12.5,5.73,2.04,-9.2,26.7
2015-11-18 00:15:00,0.0,1.92957,0.00038,399.986,0.027,0.3008,0.0014,140.000,45.000,31831.97979,1.93533,401.445,35.333,45.069,45.000,0.00,0.09,-272.74,-272.80,-7,525,-962,20.2,9.7,-12.8,20.4,9.8,-12.5,5.73,2.05,-9.2,26.7
2015-11-18 00:16:00,0.0,1.92946,0.00044,399.994,0.033,0.3004,0.0014,139.999,45.000,31830.25117,1.93521,401.450,35.325,45.069,45.000,0.00,0.09,-272.75,-272.80,-7,525,-962,20.2,9.7,-12.8,20.3,9.8,-12.6,5.73,2.05,-9.2,26.7
2015-11-18 00:17:00,0.0,1.92974,0.00035,399.998,0.023,0.3014,0.0016,139.997,44.999,31828.36461,1.93552,401.460,35.330,45.069,45.000,0.00,0.09,-272.75,-272.81,-7,525,-962,20.2,9.7,-12.7,20.3,9.8,-12.5,5.73,2.04,-9.2,26.7
2015-11-18 00:18:00,0.0,1.92944,0.00035,400.014,0.025,0.3002,0.0016,139.998,44.999,31828.88644,1.93517,401.470,35.364,45.069,45.000,0.00,0.09,-272.75,-272.80,-7,525,-962,20.2,9.7,-12.8,20.3,9.8,-12.6,5.73,2.05,-9.2,26.7
2015-11-18 00:19:00,0.0,1.92940,0.00033,400.023,0.039,0.2998,0.0016,139.999,45.000,31829.04271,1.93516,401.476,35.375,45.069,45.000,0.00,0.09,-272.75,-272.80,-7,525,-962,20.2,9.7,-12.8,20.3,9.8,-12.6,5.73,2.04,-9.2,26.7
2015-11-18 00:20:00,0.0,1.92895,0.00047,399.987,0.026,0.3004,0.0022,139.999,45.000,31831.55898,1.93472,401.445,35.375,45.069,45.000,0.00,0.09,-272.75,-272.81,-7,525,-962,20.2,9.7,-12.8,20.4,9.8,-12.5,5.73,2.04,-9.2,26.7
2015-11-18 00:21:00,0.0,1.92898,0.00041,399.994,0.034,0.3010,0.0014,139.999,45.000,31831.00043,1.93473,401.455,35.375,45.069,45.000,0.00,0.09,-272.75,-272.80,-7,525,-962,20.2,9.7,-12.8,20.3,9.8,-12.5,5.73,2.04,-9.2,26.7
2015-11-18 00:22:00,0.0,1.92904,0.00049,400.002,0.034,0.2990,0.0021,139.999,45.000,31831.65705,1.93474,401.453,35.373,45.068,45.000,0.00,0.09,-272.74,-272.80,-7,525,-962,20.2,9.6,-12.8,20.3,9.8,-12.6,5.73,2.03,-9.2,26.7
2015-11-18 00:23:00,0.0,1.92944,0.00038,399.997,0.042,0.2991,0.0018,139.998,45.000,31831.47406,1.93518,401.448,35.375,45.068,45.000,0.00,0.09,-272.75,-272.81,-7,525,-962,20.2,9.6,-12.8,20.3,9.7,-12.6,5.73,2.03,-9.2,26.7
2015-11-18 00:24:00,0.0,1.92931,0.00040,399.989,0.035,0.2998,0.0022,139.998,45.000,31831.28284,1.93505,401.442,35.380,45.068,45.000,0.00,0.09,-272.75,-272.81,-6,525,-962,20.2,9.7,-12.8,20.3,9.8,-12.6,5.73,2.02,-9.2,26.7
2015-11-18 00:25:00,0.0,1.92923,0.00049,399.977,0.031,0.3002,0.0017,140.000,45.000,31831.72801,1.93495,401.432,35.382,45.069,45.000,0.00,0.09,-272.74,-272.81,-7,525,-962,20.2,9.7,-12.8,20.4,9.8,-12.6,5.73,2.02,-9.2,26.7
2015-11-18 00:26:00,0.0,1.92865,0.00054,399.968,0.045,0.2989,0.0015,139.998,45.000,31831.44096,1.93444,401.420,35.375,45.069,45.000,0.00,0.09,-272.75,-272.81,-7,525,-962,20.2,9.6,-12.8,20.4,9.7,-12.6,5.73,2.02,-9.2,26.7
2015-11-18 00:27:00,0.0,1.92861,0.00050,399.981,0.041,0.2983,0.0015,139.998,45.000,31829.74201,1.93430,401.427,35.379,45.069,45.000,0.00,0.09,-272.75,-272.81,-7,525,-962,20.2,9.6,-12.8,20.4,9.7,-12.6,5.73,2.01,-9.2,26.7
2015-11-18 00:28:00,0.0,1.92845,0.00054,399.957,0.028,0.2975,0.0015,140.000,45.000,31831.88743,1.93416,401.399,35.374,45.069,45.000,0.00,0.09,-272.74,-272.80,-7,525,-962,20.2,9.6,-12.9,20.4,9.7,-12.6,5.73,2.01,-9.2,26.7
2015-11-18 00:29:00,0.0,1.92845,0.00048,399.945,0.027,0.2977,0.0021,140.000,45.000,31836.04175,1.93410,401.388,35.356,45.069,45.000,0.00,0.09,-272.74,-272.80,-7,525,-962,20.2,9.6,-12.9,20.4,9.7,-12.6,5.73,2.01,-9.2,26.7
2015-11-18 00:30:00,0.0,1.92856,0.00044,399.946,0.027,0.2976,0.0019,140.000,45.000,31832.41618,1.93428,401.390,35.332,45.069,45.000,0.00,0.09,-272.75,-272.81,-7,525,-962,20.2,9.6,-12.9,20.3,9.7,-12.6,5.73,2.01,-9.2,26.7
2015-11-18 00:31:00,0.0,1.92833,0.00036,399.946,0.030,0.2980,0.0020,140.000,45.000,31833.71222,1.93401,401.390,35.343,45.069,45.000,0.00,0.09,-272.75,-272.80,-7,525,-962,20.2,9.6,-12.9,20.3,9.7,-12.6,5.73,2.00,-9.2,26.7
2015-11-18 00:32:00,0.0,1.92861,0.00034,399.963,0.025,0.2986,0.0018,140.000,45.000,31833.00636,1.93433,401.411,35.362,45.069,45.000,0.00,0.09,-272.74,-272.80,-7,525,-962,20.2,9.6,-12.8,20.4,9.7,-12.6,5.73,1.99,-9.2,26.7
2015-11-18 00:33:00,0.0,1.92874,0.00037,399.953,0.031,0.2979,0.0022,139.995,45.000,31831.22198,1.93445,401.397,35.374,45.069,45.000,0.00,0.09,-272.75,-272.81,-7,525,-962,20.2,9.6,-12.9,20.3,9.7,-12.6,5.73,1.99,-9.2,26.7
2015-11-18 00:34:00,0.0,1.92898,0.00030,399.981,0.035,0.2966,0.0015,139.998,44.999,31830.48585,1.93463,401.420,35.373,45.069,45.000,0.00,0.09,-272.75,-272.80,-7,525,-962,20.2,9.6,-12.9,20.3,9.7,-12.7,5.73,1.99,-9.2,26.7
2015-11-18 00:35:00,0.0,1.92848,0.00032,399.948,0.038,0.2975,0.0017,139.997,45.000,31831.13166,1.93419,401.391,35.357,45.069,45.000,0.00,0.09,-272.74,-272.80,-7,525,-962,20.2,9.6,-12.9,20.3,9.7,-12.7,5.73,2.00,-9.2,26.7
2015-11-18 00:36:00,0.0,1.92900,0.00038,399.980,0.027,0.2990,0.0021,139.999,45.000,31830.98802,1.93473,401.429,35.366,45.069,45.000,0.00,0.09,-272.75,-272.80,-7,525,-962,20.2,9.7,-12.8,20.3,9.7,-12.6,5.73,1.99,-9.2,26.7
2015-11-18 00:37:00,0.0,1.92865,0.00045,399.956,0.030,0.2991,0.0013,139.998,45.000,31833.12665,1.93438,401.406,35.367,45.069,45.000,0.00,0.09,-272.75,-272.81,-7,525,-962,20.2,9.6,-12.9,20.3,9.7,-12.6,5.73,2.00,-9.2,26.7
2015-11-18 00:38:00,0.0,1.92824,0.00034,399.939,0.034,0.2971,0.0013,139.997,45.001,31832.79970,1.93391,401.380,35.373,45.069,45.000,0.00,0.09,-272.75,-272.80,-7,525,-962,20.2,9.6,-12.9,20.3,9.7,-12.6,5.73,2.00,-9.2,26.7
2015-11-18 00:39:00,0.0,1.92831,0.00046,399.946,0.040,0.2958,0.0022,139.999,45.001,31834.43986,1.93400,401.380,35.377,45.069,45.000,0.00,0.09,-272.74,-272.80,-7,525,-962,20.2,9.6,-13.0,20.3,9.7,-12.7,5.73,2.00,-9.2,26.7
2015-11-18 00:40:00,0.0,1.92853,0.00030,399.936,0.039,0.2968,0.0018,139.997,45.001,31835.24921,1.93419,401.375,35.375,45.069,45.000,0.00,0.09,-272.75,-272.81,-7,525,-962,20.2,9.6,-12.9,20.3,9.7,-12.7,5.73,2.00,-9.2,26.7
2015-11-18 00:41:00,0.0,1.92813,0.00029,399.949,0.024,0.2974,0.0019,139.997,45.001,31836.27193,1.93383,401.392,35.373,45.069,45.000,0.00,0.09,-272.75,-272.80,-7,525,-962,20.2,9.6,-12.9,20.3,9.7,-12.7,5.73,2.00,-9.2,26.7
2015-11-18 00:42:00,0.0,1.92842,0.00026,399.955,0.023,0.2984,0.0014,139.997,45.001,31835.77777,1.93411,401.401,35.375,45.068,45.000,0.00,0.09,-272.75,-272.81,-7,525,-962,20.2,9.6,-12.9,20.3,9.7,-12.6,5.73,2.00,-9.2,26.7
2015-11-18 00:43:00,0.0,1.92861,0.00054,399.951,0.030,0.2984,0.0014,139.997,45.001,31836.90709,1.93433,401.398,35.374,45.068,45.000,0.00,0.09,-272.75,-272.81,-7,525,-962,20.2,9.6,-12.8,20.3,9.7,-12.6,5.73,2.00,-9.2,26.7
2015-11-18 00:44:00,0.0,1.92845,0.00037,399.948,0.037,0.2990,0.0016,139.996,45.000,31835.08038,1.93418,401.398,35.376,45.068,45.000,0.00,0.09,-272.75,-272.81,-7,525,-962,20.2,9.7,-12.8,20.3,9.7,-12.6,5.73,2.01,-9.2,26.7
2015-11-18 00:45:00,0.0,1.92853,0.00037,399.943,0.029,0.2984,0.0018,139.998,45.000,31837.72156,1.93422,401.389,35.375,45.069,45.000,0.00,0.09,-272.74,-272.80,-7,525,-962,20.2,9.7,-12.8,20.3,9.8,-12.6,5.73,2.01,-9.2,26.7
2015-11-18 00:46:00,0.0,1.92845,0.00045,399.936,0.024,0.2999,0.0014,140.000,45.000,31837.34339,1.93418,401.390,35.375,45.069,45.000,0.00,0.09,-272.74,-272.81,-7,525,-962,20.2,9.7,-12.8,20.3,9.8,-12.6,5.73,2.02,-9.2,26.7
2015-11-18 00:47:00,0.0,1.92874,0.00030,399.963,0.031,0.2995,0.0014,140.000,44.999,31834.17361,1.93447,401.415,35.393,45.069,45.000,0.00,0.09,-272.75,-272.81,-7,525,-962,20.2,9.7,-12.8,20.3,9.8,-12.6,5.73,2.02,-9.2,26.7
2015-11-18 00:48:00,0.0,1.92902,0.00026,399.953,0.032,0.2995,0.0020,140.001,44.999,31833.08449,1.93473,401.404,35.391,45.069,45.000,0.00,0.09,-272.74,-272.80,-7,525,-962,20.2,9.7,-12.8,20.3,9.8,-12.6,5.73,2.03,-9.2,26.7
2015-11-18 00:49:00,0.0,1.92895,0.00031,399.956,0.037,0.2988,0.0016,139.999,45.000,31834.07577,1.93469,401.406,35.376,45.069,45.000,0.00,0.09,-272.74,-272.80,-7,525,-962,20.2,9.6,-12.8,20.3,9.7,-12.6,5.73,2.03,-9.2,26.7
2015-11-18 00:50:00,0.0,1.92872,0.00039,399.952,0.030,0.2980,0.0023,140.000,45.000,31833.94495,1.93442,401.397,35.373,45.069,45.000,0.00,0.09,-272.75,-272.80,-7,525,-962,20.2,9.6,-12.8,20.3,9.7,-12.6,5.73,2.03,-9.2,26.7
2015-11-18 00:51:00,0.0,1.92929,0.00050,399.964,0.032,0.2974,0.0016,139.998,45.000,31833.50214,1.93497,401.406,35.372,45.069,45.000,0.00,0.09,-272.75,-272.81,-7,525,-962,20.2,9.6,-12.9,20.3,9.7,-12.7,5.73,2.03,-9.2,26.7
2015-11-18 00:52:00,0.0,1.92905,0.00032,399.963,0.030,0.2987,0.0016,139.999,45.000,31833.49693,1.93476,401.412,35.368,45.069,45.000,0.00,0.09,-272.74,-272.80,-7,525,-962,20.2,9.6,-12.8,20.3,9.7,-12.6,5.73,2.03,-9.2,26.7
2015-11-18 00:53:00,0.0,1.92876,0.00052,399.951,0.026,0.2991,0.0018,140.001,45.000,31834.37130,1.93453,401.401,35.346,45.069,45.000,0.00,0.09,-272.75,-272.80,-7,525,-962,20.2,9.7,-12.8,20.3,9.7,-12.6,5.73,2.04,-9.2,26.7
2015-11-18 00:54:00,0.0,1.92815,0.00039,399.927,0.030,0.3007,0.0013,140.001,45.000,31834.99423,1.93388,401.385,35.316,45.069,45.000,0.00,0.09,-272.75,-272.81,-7,525,-962,20.2,9.7,-12.8,20.3,9.8,-12.6,5.73,2.04,-9.2,26.7
2015-11-18 00:55:00,0.0,1.92799,0.00054,399.915,0.028,0.3008,0.0020,139.997,45.000,31834.45927,1.93372,401.373,35.319,45.069,45.000,0.00,0.09,-272.75,-272.80,-7,525,-962,20.2,9.7,-12.8,20.3,9.8,-12.5,5.73,2.04,-9.2,26.7
2015-11-18 00:56:00,0.0,1.92891,0.00036,399.954,0.032,0.2988,0.0017,139.999,45.000,31836.24355,1.93461,401.403,35.321,45.069,45.000,0.00,0.09,-272.75,-272.80,-7,525,-962,20.2,9.7,-12.8,20.3,9.8,-12.6,5.73,2.04,-9.2,26.7
2015-11-18 00:57:00,0.0,1.92864,0.00059,399.942,0.042,0.2984,0.0017,139.997,45.000,31834.12978,1.93434,401.388,35.313,45.069,45.000,0.00,0.09,-272.75,-272.81,-7,525,-962,20.2,9.6,-12.8,20.3,9.8,-12.6,5.73,2.04,-9.2,26.7
2015-11-18 00:58:00,0.0,1.92942,0.00040,399.981,0.030,0.2994,0.0018,139.995,45.000,31833.14092,1.93514,401.434,35.314,45.069,45.000,0.00,0.09,-272.75,-272.81,-7,525,-962,20.2,9.7,-12.8,20.3,9.7,-12.6,5.73,2.04,-9.2,26.7
2015-11-18 00:59:00,0.0,1.92913,0.00064,399.977,0.037,0.3003,0.0015,139.996,45.000,31830.43077,1.93484,401.432,35.326,45.069,45.000,0.00,0.09,-272.74,-272.80,-7,525,-962,20.2,9.7,-12.8,20.3,9.8,-12.6,5.73,2.04,-9.2,26.7
2015-11-18 01:00:00,0.0,1.93011,0.00072,399.997,0.039,0.3009,0.0018,139.995,45.000,31828.14037,1.93594,401.457,35.369,45.069,45.000,0.00,0.09,-272.75,-272.80,-7,525,-962,20.2,9.7,-12.8,20.3,9.8,-12.5,5.73,2.04,-9.2,26.7
2015-11-18 01:01:00,0.0,1.92899,0.00049,399.975,0.025,0.2984,0.0020,139.999,45.000,31828.32960,1.93470,401.422,35.362,45.069,45.000,0.00,0.09,-272.75,-272.81,-7,525,-962,20.2,9.6,-12.8,20.3,9.8,-12.6,5.73,2.03,-9.2,26.7
2015-11-18 01:02:00,0.0,1.92830,0.00053,399.933,0.042,0.2990,0.0018,140.000,45.000,31832.99928,1.93403,401.383,35.329,45.068,45.000,0.00,0.09,-272.74,-272.80,-7,525,-962,20.2,9.7,-12.8,20.3,9.7,-12.6,5.73,2.03,-9.2,26.7
2015-11-18 01:03:00,0.0,1.92820,0.00042,399.927,0.032,0.3007,0.0016,140.000,45.000,31832.24465,1.93396,401.384,35.339,45.068,45.000,0.00,0.09,-272.74,-272.81,-7,525,-962,20.2,9.7,-12.8,20.3,9.8,-12.6,5.73,2.03,-9.2,26.7
2015-11-18 01:04:00,0.0,1.92803,0.00051,399.922,0.029,0.3004,0.0013,139.998,45.000,31832.24045,1.93377,401.379,35.360,45.069,45.000,0.00,0.09,-272.75,-272.81,-7,525,-962,20.2,9.7,-12.8,20.4,9.8,-12.5,5.73,2.02,-9.2,26.7
2015-11-18 01:05:00,0.0,1.92784,0.00044,399.937,0.031,0.2990,0.0016,140.000,45.000,31832.14954,1.93359,401.387,35.374,45.068,45.000,0.00,0.09,-272.74,-272.80,-7,525,-962,20.2,9.7,-12.8,20.3,9.8,-12.6,5.73,2.02,-9.2,26.7
2015-11-18 01:06:00,0.0,1.92761,0.00027,399.940,0.032,0.2996,0.0021,139.996,45.000,31830.72534,1.93331,401.392,35.375,45.068,45.000,0.00,0.09,-272.74,-272.80,-7,525,-962,20.2,9.7,-12.8,20.3,9.8,-12.6,5.73,2.01,-9.2,26.7
2015-11-18 01:07:00,0.0,1.92817,0.00045,399.953,0.030,0.3010,0.0014,139.997,45.000,31829.56211,1.93393,401.414,35.366,45.068,45.000,0.00,0.09,-272.75,-272.81,-7,525,-962,20.2,9.7,-12.8,20.4,9.8,-12.5,5.73,2.01,-9.2,26.7
2015-11-18 01:08:00,0.0,1.92792,0.00033,399.940,0.030,0.2993,0.0025,139.998,45.000,31829.83188,1.93367,401.390,35.375,45.068,45.000,0.00,0.09,-272.75,-272.81,-7,525,-962,20.2,9.7,-12.8,20.3,9.8,-12.6,5.73,2.01,-9.2,26.7
2015-11-18 01:09:00,0.0,1.92819,0.00050,399.982,0.018,0.2997,0.0019,139.999,45.000,31829.37858,1.93391,401.436,35.379,45.068,45.000,0.00,0.09,-272.75,-272.80,-7,525,-962,20.2,9.7,-12.8,20.3,9.8,-12.6,5.73,2.00,-9.2,26.7
2015-11-18 01:10:00,0.0,1.92801,0.00041,399.969,0.031,0.2985,0.0018,139.998,45.000,31829.21184,1.93371,401.416,35.379,45.069,45.000,0.00,0.09,-272.75,-272.80,-7,525,-962,20.2,9.7,-12.8,20.4,9.8,-12.6,5.73,2.00,-9.2,26.7
2015-11-18 01:11:00,0.0,1.92835,0.00045,399.976,0.033,0.3002,0.0024,139.997,45.000,31828.08485,1.93409,401.432,35.375,45.068,45.000,0.00,0.09,-272.76,-272.80,-7,525,-962,20.2,9.7,-12.8,20.4,9.8,-12.6,5.73,1.99,-9.2,26.7
2015-11-18 01:12:00,0.0,1.92837,0.00037,399.982,0.028,0.2998,0.0017,139.996,45.000,31828.17582,1.93409,401.436,35.374,45.069,45.000,0.00,0.09,-272.75,-272.80,-7,525,-962,20.2,9.7,-12.8,20.4,9.8,-12.6,5.73,2.00,-9.2,26.7
2015-11-18 01:13:00,0.0,1.92840,0.00049,399.994,0.028,0.3001,0.0014,139.998,45.000,31828.89838,1.93416,401.449,35.377,45.069,45.000,0.00,0.09,-272.75,-272.80,-7,525,-962,20.2,9.7,-12.8,20.4,9.8,-12.5,5.73,1.99,-9.2,26.7
2015-11-18 01:14:00,0.0,1.92836,0.00031,399.975,0.027,0.2998,0.0013,139.997,45.001,31827.82991,1.93409,401.429,35.375,45.069,45.000,0.00,0.09,-272.75,-272.81,-7,525,-962,20.2,9.7,-12.8,20.3,9.8,-12.6,5.73,1.99,-9.2,26.7
2015-11-18 01:15:00,0.0,1.92875,0.00033,400.021,0.040,0.2961,0.0020,139.999,45.000,31831.97135,1.93441,401.455,35.374,45.069,45.000,0.00,0.09,-272.74,-272.80,-7,525,-962,20.2,9.6,-12.9,20.4,9.7,-12.6,5.73,1.98,-9.2,26.6
2015-11-18 01:16:00,0.0,1.92869,0.00044,400.057,0.052,0.2965,0.0017,139.999,45.000,31831.60529,1.93435,401.496,35.415,45.069,45.000,0.00,0.09,-272.74,-272.80,-7,525,-962,20.3,9.6,-12.9,20.4,9.7,-12.7,5.73,1.99,-9.1,26.5
2015-11-18 01:17:00,0.0,1.92875,0.00063,400.008,0.033,0.2980,0.0015,139.997,44.999,31824.72602,1.93443,401.452,35.506,45.069,45.001,0.00,0.09,-272.75,-272.81,-8,525,-962,20.3,9.6,-12.8,20.4,9.7,-12.6,5.73,1.98,-9.1,26.4
2015-11-18 01:18:00,0.0,1.92890,0.00049,399.992,0.036,0.2977,0.0020,139.998,44.999,31814.03876,1.93459,401.437,35.583,45.069,45.001,0.00,0.09,-272.75,-272.81,-8,525,-962,20.2,9.6,-12.9,20.3,9.7,-12.7,5.73,1.97,-9.0,26.3
2015-11-18 01:19:00,0.0,1.92958,0.00045,400.012,0.038,0.2962,0.0019,139.998,44.999,31797.35797,1.93526,401.449,35.640,45.069,45.000,0.00,0.09,-272.74,-272.81,-7,524,-962,20.2,9.5,-13.0,20.2,9.7,-12.7,5.73,1.98,-9.0,26.3
2015-11-18 01:20:00,0.0,1.92957,0.00048,400.034,0.032,0.2953,0.0017,139.996,44.999,31782.33002,1.93521,401.466,35.697,45.068,45.000,0.00,0.09,-272.75,-272.81,-7,524,-962,20.1,9.6,-13.0,20.1,9.7,-12.8,5.73,2.01,-9.0,26.1
2015-11-18 01:21:00,0.0,1.92929,0.00042,400.044,0.025,0.2964,0.0019,139.998,44.999,31766.46054,1.93495,401.479,35.749,45.068,44.999,0.00,0.09,-272.75,-272.81,-6,524,-962,20.0,9.6,-13.0,20.1,9.8,-12.8,5.73,2.08,-9.0,25.9
2015-11-18 01:22:00,0.0,1.92990,0.00050,400.069,0.044,0.2969,0.0018,139.998,45.000,31750.55612,1.93559,401.509,35.750,45.067,44.998,0.00,0.09,-272.74,-272.80,-6,524,-962,20.0,9.6,-13.0,20.0,9.8,-12.8,5.73,2.14,-9.0,25.9
2015-11-18 01:23:00,0.0,1.92974,0.00059,400.074,0.061,0.2970,0.0021,139.999,45.000,31736.43641,1.93541,401.512,35.750,45.066,44.998,0.00,0.09,-272.74,-272.80,-7,524,-962,19.9,9.7,-13.0,19.9,9.9,-12.8,5.73,2.16,-9.0,25.8
2015-11-18 01:24:00,0.0,1.93020,0.00058,400.139,0.046,0.2985,0.0018,139.995,45.000,31721.58691,1.93589,401.589,35.737,45.066,44.997,0.00,0.09,-272.75,-272.80,-8,523,-962,19.9,9.7,-13.0,19.8,9.9,-12.8,5.73,2.07,-9.0,25.7
2015-11-18 01:25:00,0.0,1.92992,0.00040,400.103,0.029,0.2950,0.0018,139.997,45.000,31707.92569,1.93559,401.533,35.690,45.066,44.997,0.00,0.09,-272.74,-272.80,-7,522,-962,19.8,9.7,-13.1,19.7,9.9,-12.9,5.73,1.92,-9.0,25.6
2015-11-18 01:26:00,0.0,1.93040,0.00050,400.103,0.034,0.2955,0.0016,139.999,45.000,31693.55948,1.93605,401.537,35.639,45.067,44.998,0.00,0.09,-272.75,-272.80,-5,522,-962,19.7,9.7,-13.1,19.6,9.9,-12.9,5.73,1.86,-9.0,25.6
2015-11-18 01:27:00,0.0,1.93035,0.00036,400.103,0.026,0.2962,0.0017,139.996,45.000,31678.12899,1.93603,401.538,35.618,45.067,44.998,0.00,0.09,-272.75,-272.80,-6,522,-961,19.6,9.8,-13.1,19.6,10.0,-12.9,5.73,2.00,-9.0,25.5
2015-11-18 01:28:00,0.0,1.93056,0.00042,400.118,0.042,0.2962,0.0014,139.997,45.000,31665.32850,1.93620,401.555,35.577,45.068,44.999,0.00,0.09,-272.75,-272.80,-8,522,-961,19.6,9.8,-13.2,19.5,10.0,-12.9,5.73,2.22,-9.0,25.4
2015-11-18 01:29:00,0.0,1.93088,0.00036,400.127,0.038,0.2947,0.0019,139.996,45.000,31654.24014,1.93655,401.557,35.515,45.068,44.999,0.00,0.09,-272.75,-272.80,-7,521,-961,19.5,9.8,-13.2,19.4,10.1,-12.9,5.73,2.22,-9.0,25.3
2015-11-18 01:30:00,0.0,1.93117,0.00044,400.149,0.038,0.2940,0.0019,139.993,45.000,31641.79402,1.93677,401.574,35.465,45.068,44.999,0.00,0.09,-272.74,-272.80,-5,521,-961,19.5,9.8,-13.2,19.3,10.1,-13.0,5.73,1.96,-9.0,25.2
2015-11-18 01:31:00,0.0,1.93161,0.00055,400.136,0.022,0.2938,0.0009,139.996,45.000,31630.36292,1.93720,401.563,35.429,45.068,45.000,0.00,0.09,-272.74,-272.81,-6,521,-961,19.4,9.8,-13.2,19.3,10.1,-13.0,5.73,1.81,-9.0,25.1
2015-11-18 01:32:00,0.0,1.93198,0.00029,400.157,0.027,0.2924,0.0014,139.996,44.999,31619.77768,1.93758,401.574,35.356,45.069,45.000,0.00,0.09,-272.74,-272.81,-8,520,-961,19.4,9.8,-13.3,19.2,10.1,-13.0,5.73,2.06,-9.0,25.1
2015-11-18 01:33:00,0.0,1.93180,0.00042,400.173,0.034,0.2914,0.0017,139.995,44.999,31609.90205,1.93740,401.586,35.304,45.069,45.000,0.00,0.09,-272.75,-272.80,-5,520,-961,19.3,9.8,-13.3,19.2,10.1,-13.1,5.73,2.31,-9.0,25.0
2015-11-18 01:34:00,0.0,1.93140,0.00056,400.151,0.038,0.2938,0.0019,139.998,44.999,31602.84558,1.93705,401.576,35.252,45.069,45.000,0.00,0.09,-272.75,-272.81,-5,520,-961,19.2,9.9,-13.3,19.1,10.2,-13.0,5.73,2.10,-9.1,24.9
2015-11-18 01:35:00,0.0,1.93155,0.00034,400.155,0.040,0.2933,0.0019,139.999,44.998,31593.46935,1.93715,401.578,35.236,45.069,45.000,0.00,0.09,-272.74,-272.80,-7,520,-961,19.2,9.9,-13.3,19.0,10.3,-13.0,5.73,1.79,-9.1,24.8
2015-11-18 01:36:00,0.0,1.93166,0.00038,400.157,0.031,0.2945,0.0017,139.999,44.998,31585.71519,1.93731,401.585,35.203,45.069,45.000,0.00,0.09,-272.74,-272.81,-6,519,-961,19.2,10.0,-13.2,19.0,10.3,-12.9,5.73,2.00,-9.1,24.7
2015-11-18 01:37:00,0.0,1.93149,0.00045,400.166,0.037,0.2954,0.0019,139.995,44.999,31576.03583,1.93715,401.600,35.187,45.069,45.000,0.00,0.09,-272.76,-272.80,-4,520,-961,19.1,10.0,-13.2,18.9,10.4,-12.9,5.73,2.34,-9.1,24.6
2015-11-18 01:38:00,0.0,1.93162,0.00032,400.445,0.361,0.2967,0.0023,139.998,44.999,31570.71020,1.93730,401.885,35.156,45.069,45.000,0.00,0.09,-272.75,-272.80,-7,519,-961,19.0,10.1,-13.2,18.8,10.5,-12.8,5.73,2.08,-9.1,24.5
2015-11-18 01:39:00,0.0,1.93186,0.00035,400.208,0.040,0.2929,0.0020,139.998,44.999,31563.87951,1.93747,401.629,35.110,45.068,44.999,0.00,0.09,-272.74,-272.80,-6,519,-960,19.0,10.0,-13.3,18.8,10.5,-12.9,5.73,1.76,-9.0,24.5
2015-11-18 01:40:00,0.0,1.93168,0.00033,400.248,0.038,0.2919,0.0020,139.998,44.998,31557.51593,1.93728,401.664,35.057,45.068,45.000,0.00,0.09,-272.74,-272.80,-4,519,-960,19.0,10.0,-13.3,18.8,10.4,-13.0,5.73,2.12,-9.0,24.4
2015-11-18 01:41:00,0.0,1.93205,0.00038,400.216,0.023,0.2921,0.0020,139.999,44.999,31551.55631,1.93766,401.633,34.999,45.069,45.000,0.00,0.09,-272.75,-272.80,-7,519,-960,18.9,10.0,-13.4,18.7,10.4,-13.0,5.73,2.35,-8.9,24.4
2015-11-18 01:42:00,0.0,1.93210,0.00043,400.214,0.029,0.2917,0.0018,139.999,45.000,31548.65589,1.93765,401.629,34.888,45.069,45.000,0.00,0.09,-272.74,-272.80,-6,518,-960,18.9,10.0,-13.3,18.7,10.5,-13.0,5.73,1.88,-8.9,24.3
2015-11-18 01:43:00,0.0,1.93258,0.00034,400.273,0.040,0.2916,0.0017,139.996,45.001,31548.56132,1.93817,401.688,34.734,45.069,44.999,0.00,0.09,-272.74,-272.81,-4,519,-960,18.9,10.0,-13.3,18.7,10.5,-13.0,5.73,1.84,-8.8,24.3
2015-11-18 01:44:00,0.0,1.93307,0.00031,400.271,0.029,0.2914,0.0021,139.998,45.001,31556.63010,1.93864,401.683,34.621,45.068,44.999,0.00,0.09,-272.75,-272.81,-7,519,-960,19.0,10.0,-13.3,18.7,10.5,-12.9,5.73,2.29,-8.8,24.3
2015-11-18 01:45:00,0.0,1.93300,0.00040,400.278,0.037,0.2936,0.0022,139.998,45.000,31567.30499,1.93864,401.704,34.498,45.068,44.999,0.00,0.09,-272.75,-272.80,-6,518,-960,19.0,10.0,-13.2,18.8,10.5,-12.9,5.73,2.22,-8.8,24.4